Time,TemperatureF,DewpointF,PressureIn,WindDirection,WindDirectionDegrees,WindSpeedMPH,WindSpeedGustMPH,Humidity,HourlyPrecipIn,Conditions,Clouds,dailyrainin,SoftwareType,DateUTC
2013-05-13 00:03:00,71.0,-99.9,30.09,SW,221,1.0,3.0,-999,-99.99,,,-99.99,,2013-05-13 10:03:00,
2013-05-13 00:12:00,71.0,-99.9,30.09,SW,230,1.0,2.0,-999,-99.99,,,-99.99,,2013-05-13 10:12:00,
2013-05-13 00:22:00,71.0,-99.9,30.09,South,189,3.0,5.0,-999,-99.99,,,-99.99,,2013-05-13 10:22:00,
2013-05-13 00:33:00,71.0,-99.9,30.09,South,186,1.0,2.0,-999,-99.99,,,-99.99,,2013-05-13 10:33:00,
2013-05-13 00:43:00,71.0,-99.9,30.08,South,179,1.0,2.0,-999,-99.99,,,-99.99,,2013-05-13 10:43:00,
2013-05-13 00:53:00,71.0,-99.9,30.08,South,180,2.0,3.0,-999,-99.99,,,-99.99,,2013-05-13 10:53:00,
2013-05-13 01:03:00,71.0,-99.9,30.08,SSE,160,3.0,4.0,-999,-99.99,,,-99.99,,2013-05-13 11:03:00,
2013-05-13 01:12:00,71.0,-99.9,30.08,SSE,163,2.0,4.0,-999,-99.99,,,-99.99,,2013-05-13 11:12:00,
2013-05-13 01:22:00,71.0,-99.9,30.07,WSW,248,2.0,3.0,-999,-99.99,,,-99.99,,2013-05-13 11:22:00,
2013-05-13 01:32:00,71.0,-99.9,30.06,NNE,31,3.0,4.0,-999,-99.99,,,-99.99,,2013-05-13 11:32:00,
2013-05-13 01:42:00,72.0,-99.9,30.06,SSE,147,3.0,6.0,-999,-99.99,,,-99.99,,2013-05-13 11:42:00,
2013-05-13 01:52:00,71.0,-99.9,30.06,SE,142,2.0,4.0,-999,-99.99,,,-99.99,,2013-05-13 11:52:00,
2013-05-13 02:02:00,71.0,-99.9,30.06,East,85,4.0,7.0,-999,-99.99,,,-99.99,,2013-05-13 12:02:00,
2013-05-13 02:12:00,71.0,-99.9,30.06,South,181,6.0,8.0,-999,-99.99,,,-99.99,,2013-05-13 12:12:00,
2013-05-13 02:21:00,71.0,-99.9,30.06,SSE,152,4.0,8.0,-999,-99.99,,,-99.99,,2013-05-13 12:21:00,
2013-05-13 02:32:00,71.0,-99.9,30.06,SE,128,4.0,6.0,-999,-99.99,,,-99.99,,2013-05-13 12:32:00,
2013-05-13 02:42:00,71.0,-99.9,30.06,SSE,153,4.0,7.0,-999,-99.99,,,-99.99,,2013-05-13 12:42:00,
2013-05-13 02:52:00,70.0,-99.9,30.06,SSW,195,5.0,6.0,-999,-99.99,,,-99.99,,2013-05-13 12:52:00,
2013-05-13 03:01:00,-999.0,-99.9,30.06,SSW,208,7.0,9.0,-999,-99.99,,,-99.99,,2013-05-13 13:01:00,
2013-05-13 03:11:00,-999.0,-99.9,30.05,SW,218,6.0,9.0,-999,-99.99,,,-99.99,,2013-05-13 13:11:00,
2013-05-13 03:22:00,-999.0,-99.9,30.05,SW,233,9.0,12.0,-999,-99.99,,,-99.99,,2013-05-13 13:22:00,
2013-05-13 03:32:00,-999.0,-99.9,30.04,SW,217,8.0,12.0,-999,-99.99,,,-99.99,,2013-05-13 13:32:00,
2013-05-13 03:42:00,-999.0,-99.9,30.04,SW,217,8.0,12.0,-999,-99.99,,,-99.99,,2013-05-13 13:42:00,
2013-05-13 03:52:00,-999.0,-99.9,30.04,SW,217,8.0,12.0,-999,-99.99,,,-99.99,,2013-05-13 13:52:00,
2013-05-13 04:02:00,-999.0,-99.9,30.04,SW,217,8.0,12.0,-999,-99.99,,,-99.99,,2013-05-13 14:02:00,
2013-05-13 04:11:00,-999.0,-99.9,30.04,SW,227,6.0,10.0,-999,-99.99,,,-99.99,,2013-05-13 14:11:00,
2013-05-13 04:22:00,-999.0,-99.9,30.04,SSE,163,3.0,7.0,-999,-99.99,,,-99.99,,2013-05-13 14:22:00,
2013-05-13 04:32:00,-999.0,-99.9,30.05,SE,130,3.0,5.0,-999,-99.99,,,-99.99,,2013-05-13 14:32:00,
2013-05-13 04:42:00,71.0,-99.9,30.05,ESE,104,4.0,5.0,-999,-99.99,,,-99.99,,2013-05-13 14:42:00,
2013-05-13 04:52:00,-999.0,-99.9,30.05,SSW,204,5.0,6.0,-999,-99.99,,,-99.99,,2013-05-13 14:52:00,
2013-05-13 05:01:00,-999.0,-99.9,30.05,SW,225,6.0,8.0,-999,-99.99,,,-99.99,,2013-05-13 15:01:00,
2013-05-13 05:11:00,-999.0,-99.9,30.05,SW,225,6.0,8.0,-999,-99.99,,,-99.99,,2013-05-13 15:11:00,
2013-05-13 05:22:00,-999.0,-99.9,30.05,SW,225,6.0,8.0,-999,-99.99,,,-99.99,,2013-05-13 15:22:00,
2013-05-13 05:32:00,-999.0,-99.9,30.05,SW,225,6.0,8.0,-999,-99.99,,,-99.99,,2013-05-13 15:32:00,
2013-05-13 08:42:00,80.0,-99.9,30.08,South,177,5.0,10.0,-999,-99.99,,,-99.99,,2013-05-13 18:42:00,
2013-05-13 08:52:00,80.0,-99.9,30.08,South,180,9.0,12.0,-999,-99.99,,,-99.99,,2013-05-13 18:52:00,
2013-05-13 09:01:00,82.0,-99.9,30.09,SSE,161,7.0,11.0,-999,-99.99,,,-99.99,,2013-05-13 19:01:00,
2013-05-13 09:12:00,83.0,-99.9,30.09,SSE,159,7.0,11.0,-999,-99.99,,,-99.99,,2013-05-13 19:12:00,
2013-05-13 09:22:00,83.0,-99.9,30.09,SSE,147,6.0,11.0,-999,-99.99,,,-99.99,,2013-05-13 19:22:00,
2013-05-13 09:33:00,85.0,-99.9,30.09,SE,139,7.0,11.0,-999,-99.99,,,-99.99,,2013-05-13 19:33:00,
2013-05-13 09:44:00,83.0,-99.9,30.09,SSE,160,10.0,13.0,-999,-99.99,,,-99.99,,2013-05-13 19:44:00,
2013-05-13 09:53:00,83.0,-99.9,30.09,South,187,7.0,11.0,-999,-99.99,,,-99.99,,2013-05-13 19:53:00,
2013-05-13 10:02:00,83.0,-99.9,30.09,South,174,8.0,11.0,-999,-99.99,,,-99.99,,2013-05-13 20:02:00,
2013-05-13 10:11:00,87.0,-99.9,30.09,SSE,150,6.0,10.0,-999,-99.99,,,-99.99,,2013-05-13 20:11:00,
2013-05-13 10:23:00,85.0,-99.9,30.09,South,175,6.0,10.0,-999,-99.99,,,-99.99,,2013-05-13 20:23:00,
2013-05-13 10:34:00,86.0,-99.9,30.09,SSE,163,6.0,11.0,-999,-99.99,,,-99.99,,2013-05-13 20:34:00,
2013-05-13 10:44:00,87.0,-99.9,30.09,SSE,162,6.0,10.0,-999,-99.99,,,-99.99,,2013-05-13 20:44:00,
2013-05-13 10:53:00,88.0,-99.9,30.08,ESE,123,3.0,9.0,-999,-99.99,,,-99.99,,2013-05-13 20:53:00,
2013-05-13 11:03:00,-999.0,-99.9,30.08,South,169,6.0,12.0,-999,-99.99,,,-99.99,,2013-05-13 21:03:00,
2013-05-13 11:14:00,-999.0,-99.9,30.08,SE,145,6.0,9.0,-999,-99.99,,,-99.99,,2013-05-13 21:14:00,
2013-05-13 11:23:00,-999.0,-99.9,30.08,ESE,119,7.0,13.0,-999,-99.99,,,-99.99,,2013-05-13 21:23:00,
2013-05-13 11:34:00,-999.0,-99.9,30.08,ESE,114,7.0,13.0,-999,-99.99,,,-99.99,,2013-05-13 21:34:00,
2013-05-13 11:44:00,91.0,-99.9,30.07,ESE,114,8.0,13.0,-999,-99.99,,,-99.99,,2013-05-13 21:44:00,
2013-05-13 11:53:00,-999.0,-99.9,30.07,ESE,102,9.0,14.0,-999,-99.99,,,-99.99,,2013-05-13 21:53:00,
2013-05-13 12:03:00,-999.0,-99.9,30.07,ENE,76,10.0,14.0,-999,-99.99,,,-99.99,,2013-05-13 22:03:00,
2013-05-13 12:12:00,-999.0,-99.9,30.07,ESE,119,10.0,16.0,-999,-99.99,,,-99.99,,2013-05-13 22:12:00,
2013-05-13 12:23:00,-999.0,-99.9,30.07,East,80,10.0,15.0,-999,-99.99,,,-99.99,,2013-05-13 22:23:00,
2013-05-13 12:32:00,-999.0,-99.9,30.07,East,99,5.0,16.0,-999,-99.99,,,-99.99,,2013-05-13 22:32:00,
2013-05-13 12:43:00,-999.0,-99.9,30.07,East,91,6.0,13.0,-999,-99.99,,,-99.99,,2013-05-13 22:43:00,
2013-05-13 12:52:00,-999.0,-99.9,30.06,East,93,8.0,14.0,-999,-99.99,,,-99.99,,2013-05-13 22:52:00,
2013-05-13 13:02:00,-999.0,-99.9,30.06,ESE,103,8.0,16.0,-999,-99.99,,,-99.99,,2013-05-13 23:02:00,
2013-05-13 13:13:00,-999.0,-99.9,30.06,ENE,78,5.0,13.0,-999,-99.99,,,-99.99,,2013-05-13 23:13:00,
2013-05-13 13:23:00,-999.0,-99.9,30.06,ESE,119,9.0,15.0,-999,-99.99,,,-99.99,,2013-05-13 23:23:00,
2013-05-13 13:34:00,-999.0,-99.9,30.06,ENE,72,8.0,17.0,-999,-99.99,,,-99.99,,2013-05-13 23:34:00,
2013-05-13 13:42:00,-999.0,-99.9,30.06,East,96,6.0,11.0,-999,-99.99,,,-99.99,,2013-05-13 23:42:00,
2013-05-13 13:54:00,-999.0,-99.9,30.06,SE,131,8.0,11.0,-999,-99.99,,,-99.99,,2013-05-13 23:54:00,
2013-05-13 14:03:00,-999.0,-99.9,30.05,East,87,8.0,13.0,-999,-99.99,,,-99.99,,2013-05-14 00:03:00,
2013-05-13 14:13:00,-999.0,-99.9,30.05,ENE,76,9.0,14.0,-999,-99.99,,,-99.99,,2013-05-14 00:13:00,
2013-05-13 14:22:00,-999.0,-99.9,30.05,East,95,8.0,12.0,-999,-99.99,,,-99.99,,2013-05-14 00:22:00,
2013-05-13 14:32:00,-999.0,-99.9,30.04,ENE,63,7.0,12.0,-999,-99.99,,,-99.99,,2013-05-14 00:32:00,
2013-05-13 14:42:00,-999.0,-99.9,30.04,NE,46,10.0,14.0,-999,-99.99,,,-99.99,,2013-05-14 00:42:00,
2013-05-13 14:52:00,-999.0,-99.9,30.04,ENE,63,7.0,13.0,-999,-99.99,,,-99.99,,2013-05-14 00:52:00,
2013-05-13 15:02:00,85.0,-99.9,30.04,NE,53,10.0,14.0,-999,-99.99,,,-99.99,,2013-05-14 01:02:00,
2013-05-13 15:11:00,-999.0,-99.9,30.04,East,96,10.0,16.0,-999,-99.99,,,-99.99,,2013-05-14 01:11:00,
2013-05-13 15:21:00,91.0,-99.9,30.04,ESE,107,7.0,12.0,-999,-99.99,,,-99.99,,2013-05-14 01:21:00,
2013-05-13 15:32:00,89.0,-99.9,30.04,East,83,9.0,14.0,-999,-99.99,,,-99.99,,2013-05-14 01:32:00,
2013-05-13 15:43:00,90.0,-99.9,30.03,ENE,58,5.0,12.0,-999,-99.99,,,-99.99,,2013-05-14 01:43:00,
2013-05-13 15:53:00,-999.0,-99.9,30.03,East,91,8.0,13.0,-999,-99.99,,,-99.99,,2013-05-14 01:53:00,
2013-05-13 16:03:00,86.0,-99.9,30.03,ENE,67,9.0,11.0,-999,-99.99,,,-99.99,,2013-05-14 02:03:00,
2013-05-13 16:12:00,88.0,-99.9,30.03,ESE,103,7.0,12.0,-999,-99.99,,,-99.99,,2013-05-14 02:12:00,
2013-05-13 16:22:00,88.0,-99.9,30.03,East,80,6.0,11.0,-999,-99.99,,,-99.99,,2013-05-14 02:22:00,
2013-05-13 16:32:00,85.0,-99.9,30.03,ENE,61,7.0,11.0,-999,-99.99,,,-99.99,,2013-05-14 02:32:00,
2013-05-13 16:42:00,85.0,-99.9,30.02,NE,56,7.0,11.0,-999,-99.99,,,-99.99,,2013-05-14 02:42:00,
2013-05-13 16:52:00,87.0,-99.9,30.02,NE,46,6.0,12.0,-999,-99.99,,,-99.99,,2013-05-14 02:52:00,
2013-05-13 17:01:00,86.0,-99.9,30.02,ENE,67,5.0,9.0,-999,-99.99,,,-99.99,,2013-05-14 03:01:00,
2013-05-13 17:11:00,88.0,-99.9,30.02,East,89,5.0,9.0,-999,-99.99,,,-99.99,,2013-05-14 03:11:00,
2013-05-13 17:22:00,87.0,-99.9,30.02,East,79,6.0,10.0,-999,-99.99,,,-99.99,,2013-05-14 03:22:00,
2013-05-13 17:33:00,88.0,-99.9,30.03,East,89,8.0,11.0,-999,-99.99,,,-99.99,,2013-05-14 03:33:00,
2013-05-13 17:43:00,86.0,-99.9,30.03,ENE,75,6.0,11.0,-999,-99.99,,,-99.99,,2013-05-14 03:43:00,
2013-05-13 17:53:00,85.0,-99.9,30.03,East,80,5.0,9.0,-999,-99.99,,,-99.99,,2013-05-14 03:53:00,
2013-05-13 18:03:00,84.0,-99.9,30.03,ENE,69,5.0,8.0,-999,-99.99,,,-99.99,,2013-05-14 04:03:00,
2013-05-13 18:13:00,84.0,-99.9,30.04,NE,52,4.0,9.0,-999,-99.99,,,-99.99,,2013-05-14 04:13:00,
2013-05-13 18:23:00,83.0,-99.9,30.04,NE,42,6.0,9.0,-999,-99.99,,,-99.99,,2013-05-14 04:23:00,
2013-05-13 18:33:00,82.0,-99.9,30.04,NE,46,5.0,12.0,-999,-99.99,,,-99.99,,2013-05-14 04:33:00,
2013-05-13 18:43:00,83.0,-99.9,30.04,ESE,109,7.0,10.0,-999,-99.99,,,-99.99,,2013-05-14 04:43:00,
2013-05-13 18:53:00,81.0,-99.9,30.04,East,82,6.0,11.0,-999,-99.99,,,-99.99,,2013-05-14 04:53:00,
2013-05-13 19:02:00,80.0,-99.9,30.05,ENE,68,4.0,9.0,-999,-99.99,,,-99.99,,2013-05-14 05:02:00,
2013-05-13 19:12:00,80.0,-99.9,30.05,East,81,6.0,9.0,-999,-99.99,,,-99.99,,2013-05-14 05:12:00,
2013-05-13 19:22:00,-999.0,-99.9,30.05,ESE,111,3.0,7.0,-999,-99.99,,,-99.99,,2013-05-14 05:22:00,
2013-05-13 19:32:00,79.0,-99.9,30.05,East,91,3.0,5.0,-999,-99.99,,,-99.99,,2013-05-14 05:32:00,
2013-05-13 19:42:00,-999.0,-99.9,30.06,ESE,106,4.0,6.0,-999,-99.99,,,-99.99,,2013-05-14 05:42:00,
2013-05-13 19:53:00,78.0,-99.9,30.06,East,89,3.0,8.0,-999,-99.99,,,-99.99,,2013-05-14 05:53:00,
2013-05-13 20:01:00,-999.0,-99.9,30.06,ESE,107,2.0,5.0,-999,-99.99,,,-99.99,,2013-05-14 06:01:00,
2013-05-13 20:13:00,78.0,-99.9,30.06,ESE,118,3.0,5.0,-999,-99.99,,,-99.99,,2013-05-14 06:13:00,
2013-05-13 20:22:00,-999.0,-99.9,30.07,SW,227,4.0,6.0,-999,-99.99,,,-99.99,,2013-05-14 06:22:00,
2013-05-13 20:32:00,-999.0,-99.9,30.08,SW,229,4.0,6.0,-999,-99.99,,,-99.99,,2013-05-14 06:32:00,
2013-05-13 20:42:00,-999.0,-99.9,30.08,WSW,249,4.0,5.0,-999,-99.99,,,-99.99,,2013-05-14 06:42:00,
2013-05-13 20:52:00,-999.0,-99.9,30.08,WSW,242,2.0,4.0,-999,-99.99,,,-99.99,,2013-05-14 06:52:00,
2013-05-13 21:02:00,-999.0,-99.9,30.09,WSW,243,3.0,3.0,-999,-99.99,,,-99.99,,2013-05-14 07:02:00,
2013-05-13 21:11:00,-999.0,-99.9,30.09,SW,234,4.0,4.0,-999,-99.99,,,-99.99,,2013-05-14 07:11:00,
2013-05-13 21:22:00,-999.0,-99.9,30.09,SW,234,4.0,4.0,-999,-99.99,,,-99.99,,2013-05-14 07:22:00,
2013-05-13 21:32:00,-999.0,-99.9,30.09,SW,230,4.0,5.0,-999,-99.99,,,-99.99,,2013-05-14 07:32:00,
2013-05-13 21:42:00,-999.0,-99.9,30.10,SW,227,5.0,6.0,-999,-99.99,,,-99.99,,2013-05-14 07:42:00,
2013-05-13 21:52:00,-999.0,-99.9,30.10,SW,235,4.0,6.0,-999,-99.99,,,-99.99,,2013-05-14 07:52:00,
2013-05-13 22:02:00,-999.0,-99.9,30.10,WSW,245,3.0,3.0,-999,-99.99,,,-99.99,,2013-05-14 08:02:00,
2013-05-13 22:11:00,-999.0,-99.9,30.11,SSW,196,2.0,2.0,-999,-99.99,,,-99.99,,2013-05-14 08:11:00,
2013-05-13 22:22:00,-999.0,-99.9,30.11,SSW,198,2.0,3.0,-999,-99.99,,,-99.99,,2013-05-14 08:22:00,
2013-05-13 22:32:00,-999.0,-99.9,30.11,SSW,209,2.0,3.0,-999,-99.99,,,-99.99,,2013-05-14 08:32:00,
2013-05-13 22:42:00,-999.0,-99.9,30.11,SSW,209,3.0,4.0,-999,-99.99,,,-99.99,,2013-05-14 08:42:00,
2013-05-13 22:52:00,-999.0,-99.9,30.11,SSW,207,4.0,6.0,-999,-99.99,,,-99.99,,2013-05-14 08:52:00,
2013-05-13 23:02:00,-999.0,-99.9,30.11,SSW,205,5.0,7.0,-999,-99.99,,,-99.99,,2013-05-14 09:02:00,
2013-05-13 23:11:00,-999.0,-99.9,30.11,SSW,197,6.0,7.0,-999,-99.99,,,-99.99,,2013-05-14 09:11:00,
2013-05-13 23:22:00,-999.0,-99.9,30.11,South,182,5.0,6.0,-999,-99.99,,,-99.99,,2013-05-14 09:22:00,
2013-05-13 23:33:00,72.0,-99.9,30.11,South,186,5.0,7.0,-999,-99.99,,,-99.99,,2013-05-14 09:33:00,
2013-05-13 23:44:00,72.0,-99.9,30.11,SSW,198,4.0,6.0,-999,-99.99,,,-99.99,,2013-05-14 09:44:00,
2013-05-13 23:55:00,72.0,-99.9,30.11,South,188,3.0,4.0,-999,-99.99,,,-99.99,,2013-05-14 09:55:00,